| time (UTC) | temp C | wind direction | speed KPH | gust KPH | rain 1hr cm | rain 24hr cm | rain mn cm | humidity % | barometer mb |
| 20260507165827 | 20 | 0 | 0.0 | 0.0 | 0.00 | 0.00 | 0.00 | 5 | 931.4 |
| 20260507164327 | 20 | 0 | 0.0 | 0.0 | 0.00 | 0.00 | 0.00 | 5 | 931.6 |
| 20260507162826 | 18 | 0 | 0.0 | 0.0 | 0.00 | 0.00 | 0.00 | 5 | 931.7 |
| 20260507161327 | 20 | 0 | 0.0 | 0.0 | 0.00 | 0.00 | 0.00 | 5 | 931.9 |
| 20260507155827 | 18 | 0 | 0.0 | 0.0 | 0.00 | 0.00 | 0.00 | 5 | 931.9 |
| 20260507154327 | 18 | 0 | 0.0 | 0.0 | 0.00 | 0.00 | 0.00 | 5 | 931.9 |
| 20260507152827 | 18 | 0 | 0.0 | 0.0 | 0.00 | 0.00 | 0.00 | 5 | 932.1 |
| 20260507151327 | 17 | 0 | 0.0 | 0.0 | 0.00 | 0.00 | 0.00 | 5 | 932.6 |
| 20260507145827 | 17 | 0 | 0.0 | 0.0 | 0.00 | 0.00 | 0.00 | 5 | 933.1 |
| 20260507144327 | 17 | 0 | 0.0 | 0.0 | 0.00 | 0.00 | 0.00 | 5 | 933.0 |
| 20260507142827 | 17 | 0 | 0.0 | 0.0 | 0.00 | 0.00 | 0.00 | 5 | 932.8 |
| 20260507141327 | 17 | 0 | 0.0 | 0.0 | 0.00 | 0.00 | 0.00 | 5 | 932.7 |
| 20260507135827 | 17 | 0 | 0.0 | 0.0 | 0.00 | 0.00 | 0.00 | 5 | 932.7 |
| 20260507134327 | 16 | 0 | 0.0 | 0.0 | 0.00 | 0.00 | 0.00 | 5 | 933.1 |
| 20260507132829 | 16 | 0 | 0.0 | 0.0 | 0.00 | 0.00 | 0.00 | 5 | 933.3 |
| 20260507131327 | 16 | 0 | 0.0 | 0.0 | 0.00 | 0.00 | 0.00 | 5 | 933.4 |
| 20260507125827 | 15 | 0 | 0.0 | 0.0 | 0.00 | 0.00 | 0.00 | 5 | 933.4 |
| 20260507124327 | 15 | 0 | 0.0 | 0.0 | 0.00 | 0.00 | 0.00 | 5 | 933.1 |
| 20260507122826 | 13 | 0 | 0.0 | 0.0 | 0.00 | 0.00 | 0.00 | 8 | 933.1 |
| 20260507121327 | 13 | 0 | 0.0 | 0.0 | 0.00 | 0.00 | 0.00 | 13 | 933.0 |
| 20260507114327 | 13 | 0 | 0.0 | 0.0 | 0.00 | 0.00 | 0.00 | 8 | 932.7 |
| 20260507114320 | 13 | 0 | 0.0 | 0.0 | 0.00 | 0.00 | 0.00 | 13 | 932.7 |
| 20260507112819 | 13 | 0 | 0.0 | 0.0 | 0.00 | 0.00 | 0.00 | 8 | 932.6 |
| 20260507111319 | 13 | 0 | 0.0 | 0.0 | 0.00 | 0.00 | 0.00 | 8 | 932.3 |
| 20260507105819 | 13 | 0 | 0.0 | 0.0 | 0.00 | 0.00 | 0.00 | 8 | 932.3 |
| 20260507104320 | 13 | 0 | 0.0 | 0.0 | 0.00 | 0.00 | 0.00 | 13 | 932.2 |
| 20260507102820 | 13 | 0 | 0.0 | 0.0 | 0.00 | 0.00 | 0.00 | 13 | 932.1 |
| 20260507101319 | 12 | 0 | 0.0 | 0.0 | 0.00 | 0.00 | 0.00 | 8 | 932.2 |
| 20260507095819 | 13 | 0 | 0.0 | 0.0 | 0.00 | 0.00 | 0.00 | 8 | 932.3 |
| 20260507094319 | 13 | 0 | 0.0 | 0.0 | 0.00 | 0.00 | 0.00 | 8 | 932.4 |
| 20260507092819 | 13 | 0 | 0.0 | 0.0 | 0.00 | 0.00 | 0.00 | 13 | 932.3 |
| 20260507091319 | 13 | 0 | 0.0 | 0.0 | 0.00 | 0.00 | 0.00 | 13 | 932.1 |
| 20260507085819 | 13 | 0 | 0.0 | 0.0 | 0.00 | 0.00 | 0.00 | 8 | 932.2 |
| 20260507084319 | 15 | 0 | 0.0 | 0.0 | 0.00 | 0.00 | 0.00 | 5 | 932.2 |
| 20260507082819 | 15 | 0 | 0.0 | 0.0 | 0.00 | 0.00 | 0.00 | 5 | 931.9 |
| 20260507081319 | 15 | 0 | 0.0 | 0.0 | 0.00 | 0.00 | 0.00 | 8 | 931.8 |
| 20260507075819 | 15 | 0 | 0.0 | 0.0 | 0.00 | 0.00 | 0.00 | 5 | 931.1 |
| 20260507074319 | 15 | 0 | 0.0 | 0.0 | 0.00 | 0.00 | 0.00 | 5 | 931.1 |
| 20260507072819 | 15 | 0 | 0.0 | 0.0 | 0.00 | 0.00 | 0.00 | 5 | 931.0 |
| 20260507071319 | 15 | 0 | 0.0 | 0.0 | 0.00 | 0.00 | 0.00 | 5 | 930.7 |
| 20260507065818 | 15 | 0 | 0.0 | 0.0 | 0.00 | 0.00 | 0.00 | 8 | 930.3 |
| 20260507064319 | 15 | 0 | 0.0 | 0.0 | 0.00 | 0.00 | 0.00 | 5 | 930.4 |
| 20260507062819 | 16 | 0 | 0.0 | 0.0 | 0.00 | 0.00 | 0.00 | 5 | 930.5 |
| 20260507061319 | 16 | 0 | 0.0 | 0.0 | 0.00 | 0.00 | 0.00 | 8 | 930.7 |
| 20260507055819 | 16 | 0 | 0.0 | 0.0 | 0.00 | 0.00 | 0.00 | 8 | 930.7 |
| 20260507054319 | 17 | 0 | 0.0 | 0.0 | 0.00 | 0.00 | 0.00 | 5 | 930.2 |
| 20260507052819 | 16 | 0 | 0.0 | 0.0 | 0.00 | 0.00 | 0.00 | 5 | 929.8 |
| 20260507051318 | 16 | 0 | 0.0 | 0.0 | 0.00 | 0.00 | 0.00 | 8 | 929.4 |
| 20260507045818 | 16 | 0 | 0.0 | 0.0 | 0.00 | 0.00 | 0.00 | 8 | 929.0 |
| 20260507044319 | 17 | 0 | 0.0 | 0.0 | 0.00 | 0.00 | 0.00 | 5 | 929.1 |
| 20260507042818 | 17 | 0 | 0.0 | 0.0 | 0.00 | 0.00 | 0.00 | 5 | 928.3 |
| 20260507041319 | 17 | 0 | 0.0 | 0.0 | 0.00 | 0.00 | 0.00 | 5 | 927.9 |
| 20260507035819 | 17 | 0 | 0.0 | 0.0 | 0.00 | 0.00 | 0.00 | 5 | 927.8 |
| 20260507034319 | 17 | 0 | 0.0 | 0.0 | 0.00 | 0.00 | 0.00 | 5 | 927.2 |
| 20260507032819 | 17 | 0 | 0.0 | 0.0 | 0.00 | 0.00 | 0.00 | 8 | 927.3 |
| 20260507031318 | 17 | 0 | 0.0 | 0.0 | 0.00 | 0.00 | 0.00 | 8 | 927.4 |
| 20260507025818 | 17 | 0 | 0.0 | 0.0 | 0.00 | 0.00 | 0.00 | 13 | 927.2 |
| 20260507024318 | 17 | 0 | 0.0 | 0.0 | 0.00 | 0.00 | 0.00 | 13 | 927.3 |
| 20260507022819 | 17 | 0 | 0.0 | 0.0 | 0.00 | 0.00 | 0.00 | 13 | 927.1 |
| 20260507021318 | 17 | 0 | 0.0 | 0.0 | 0.00 | 0.00 | 0.00 | 13 | 927.4 |
| 20260507015818 | 16 | 0 | 0.0 | 0.0 | 0.00 | 0.00 | 0.00 | 13 | 927.5 |
| 20260507014318 | 16 | 0 | 0.0 | 0.0 | 0.00 | 0.00 | 0.00 | 13 | 927.1 |
| 20260507012818 | 17 | 0 | 0.0 | 0.0 | 0.00 | 0.00 | 0.00 | 13 | 927.2 |
| 20260507011318 | 17 | 0 | 0.0 | 0.0 | 0.00 | 0.00 | 0.00 | 13 | 926.9 |
| 20260507005819 | 17 | 0 | 0.0 | 0.0 | 0.00 | 0.00 | 0.00 | 13 | 926.7 |
| 20260507004319 | 17 | 0 | 0.0 | 0.0 | 0.00 | 0.00 | 0.00 | 10 | 926.3 |
| 20260507002818 | 17 | 0 | 0.0 | 0.0 | 0.00 | 0.00 | 0.00 | 13 | 926.6 |
| 20260507001318 | 17 | 0 | 0.0 | 0.0 | 0.00 | 0.00 | 0.00 | 13 | 926.4 |
| 20260506235818 | 17 | 0 | 0.0 | 0.0 | 0.00 | 0.00 | 0.00 | 13 | 926.4 |
| 20260506234318 | 17 | 0 | 0.0 | 0.0 | 0.00 | 0.00 | 0.00 | 13 | 926.5 |
| 20260506232818 | 17 | 0 | 0.0 | 0.0 | 0.00 | 0.00 | 0.00 | 10 | 926.8 |
| 20260506231318 | 17 | 0 | 0.0 | 0.0 | 0.00 | 0.00 | 0.00 | 10 | 926.7 |
| 20260506225818 | 17 | 0 | 0.0 | 0.0 | 0.00 | 0.00 | 0.00 | 13 | 927.0 |
| 20260506224319 | 17 | 0 | 0.0 | 0.0 | 0.00 | 0.00 | 0.00 | 13 | 926.8 |
| 20260506222818 | 18 | 0 | 0.0 | 0.0 | 0.00 | 0.00 | 0.00 | 13 | 926.3 |
| 20260506221318 | 18 | 0 | 0.0 | 0.0 | 0.00 | 0.00 | 0.00 | 13 | 926.3 |
| 20260506215817 | 18 | 0 | 0.0 | 0.0 | 0.00 | 0.00 | 0.00 | 13 | 925.8 |
| 20260506214318 | 18 | 0 | 0.0 | 0.0 | 0.00 | 0.00 | 0.00 | 13 | 926.0 |
| 20260506212818 | 20 | 0 | 0.0 | 0.0 | 0.00 | 0.00 | 0.00 | 11 | 925.7 |
| 20260506211318 | 20 | 0 | 0.0 | 0.0 | 0.00 | 0.00 | 0.00 | 11 | 926.0 |
| 20260506205818 | 20 | 0 | 0.0 | 0.0 | 0.00 | 0.00 | 0.00 | 10 | 926.1 |
| 20260506204318 | 21 | 0 | 0.0 | 0.0 | 0.00 | 0.00 | 0.00 | 10 | 925.8 |
| 20260506202818 | 21 | 0 | 0.0 | 0.0 | 0.00 | 0.00 | 0.00 | 10 | 925.1 |
| 20260506201318 | 21 | 0 | 0.0 | 0.0 | 0.00 | 0.00 | 0.00 | 8 | 924.2 |
| 20260506195818 | 22 | 0 | 0.0 | 0.0 | 0.00 | 0.00 | 0.00 | 8 | 924.4 |
| 20260506194318 | 22 | 0 | 0.0 | 0.0 | 0.00 | 0.00 | 0.00 | 8 | 924.9 |
| 20260506194310 | 22 | 0 | 0.0 | 0.0 | 0.00 | 0.00 | 0.00 | 10 | 924.9 |
| 20260506192810 | 22 | 0 | 0.0 | 0.0 | 0.00 | 0.00 | 0.00 | 8 | 924.8 |
| 20260506191310 | 22 | 0 | 0.0 | 0.0 | 0.00 | 0.00 | 0.00 | 8 | 924.7 |
| 20260506185810 | 22 | 0 | 0.0 | 0.0 | 0.00 | 0.00 | 0.00 | 8 | 924.9 |
| 20260506184310 | 23 | 0 | 0.0 | 0.0 | 0.00 | 0.00 | 0.00 | 8 | 924.3 |
| 20260506182810 | 23 | 0 | 0.0 | 0.0 | 0.00 | 0.00 | 0.00 | 8 | 924.0 |
| 20260506181310 | 23 | 0 | 0.0 | 0.0 | 0.00 | 0.00 | 0.00 | 8 | 923.1 |
| 20260506175810 | 23 | 0 | 0.0 | 0.0 | 0.00 | 0.00 | 0.00 | 12 | 923.8 |
| 20260506174310 | 23 | 0 | 0.0 | 0.0 | 0.00 | 0.00 | 0.00 | 20 | 923.9 |
| 20260506172810 | 23 | 0 | 0.0 | 0.0 | 0.00 | 0.00 | 0.00 | 20 | 924.0 |
| 20260506171310 | 23 | 0 | 0.0 | 0.0 | 0.00 | 0.00 | 0.00 | 20 | 923.6 |